星链-3670 (STARLINK-3670 )

导读 | 豆包AI

STARLINK-3670是美国SpaceX公司星链(Starlink)卫星互联网项目中的一颗卫星,于2022年3月19日发射入轨。星链计划旨在构建覆盖全球的低轨卫星互联网星座,为偏远地区提供高速低延迟宽带服务。STARLINK-3670作为星链组网的组成部分,加入近地轨道星座,助力全球网络覆盖能力提升,截至2026年SpaceX已累计发射超万颗星链卫星。

Basic Information
目录编号:
52106
目录名称:
STARLINK-3670
国际标识:
2022-029U
轨道中心:
EARTH
卫星名称:
星链-3670
卫星全名:
星链-3670 (STARLINK-3670 )
卫星状态:
在轨 (已飞行1456 天)
发射日期:
2022-03-19 UTC
国别 :
美国 (US)
星等 :
--
Orbit Information
数据来源 国际轨道数据 AOE轨道数据
星历时间 2026-03-14T18:05:31+0800
13小时前
查看轨道信息
2026-03-10T05:00:00+0800
5天前
查看轨道信息
半长轴 6917.887km 6917.88km
偏心率 0.0001218 0.0001626
轨道倾角 53.217° 53.217°
近地点辐角 82.367° 80.867°
升交点赤经 67.882° 88.290°
平近点角 277.746° 55.519°
近地点 538.907km 538.618km
远地点 540.593km 540.868km
周期 95.438分钟 95.438分钟
每日圈数 15.088379 15.088402
Detailed Information
固有亮度:
5
最大亮度:
2.5
卫星平台:
Starlink v1.5
覆盖范围:
全球
运营商:
太空探索技术公司
运营商所在国:
美国
制造商(研发单位):
太空探索技术公司
制造商所在国:
美国
使用方式:
暂无
Satellite Introduction
星链(Starlink)计划是由太空探索技术公司(SpaceX)提出的一个巨型低轨卫星互联网星座项目,计划在2019年至2024年间在太空搭建由约1.2万颗卫星组成的“星链”网络,其中1584颗将部署在地球上空550千米处的近地轨道,并从2020年开始工作。该卫星仍在工作。
2D Orbit Map
3D Orbit Map
Orbit Altitude Analysis Chart
Orbit Inclination Analysis Chart
Orbit Comprehensive Analysis Chart
View Comprehensive Chart